Regional Weather Roundup
Issued by NWS Northern Indiana

Home | Current Version | Previous Version | Text Only | Print | Product List | Glossary Off
Versions: 1 2 3 4 5 6 7 8 9 10 11 12 13 14 15 16 17 18 19 20 21 22 23 24 25 26 27 28 29 30 31 32 33 34 35 36 37 38 39 40 41 42 43 44 45 46 47 48 49 50

000
ASUS43 KIWX 210710
RWRIWX

KIWX WEATHER ROUNDUP
NATIONAL WEATHER SERVICE NORTHERN INDIANA
300 AM EDT MON AUG 21 2017

NOTE: "FAIR" INDICATES FEW OR NO CLOUDS BELOW 12,000 FEET WITH NO
SIGNIFICANT WEATHER AND/OR OBSTRUCTIONS TO VISIBILITY.

* THESE STATIONS ARE NOT UNDER NWS QUALITY CONTROL. THEY ALSO MAY NOT
  REPORT WEATHER SUCH AS PRECIPITATION OR FOG.

INZ001>027-210800-
NORTHERN INDIANA

CITY           SKY/WX    TMP DP  RH WIND       PRES   REMARKS
GARY*          LGT RAIN  76  67  72 S3        30.07S
VALPARAISO     LGT RAIN  74  69  85 S6        30.09R
MICHIGAN CITY* CLOUDY    73  64  73 S6        30.08S
LAPORTE*       CLOUDY    73  67  81 S5        30.10R
KNOX*          CLOUDY    72  63  73 S8        30.07F
SOUTH BEND     CLOUDY    74  68  81 S8        30.09S
GOSHEN         CLOUDY    73  66  78 S5        30.11R
MONTICELLO*    LGT RAIN  71  69  95 CALM      30.06F
LOGANSPORT*    RAIN      70  66  88 S14       30.08F
ROCHESTER*     CLOUDY    73  66  78 CALM      30.11F
WARSAW*        CLOUDY    70  68  94 CALM      30.11R
AUBURN*        MOCLDY    68  64  88 CALM      30.12S
FORT WAYNE     CLOUDY    68  64  87 CALM      30.12R
HUNTINGTON*    MOCLDY    71  67  86 CALM      30.12R
PERU/GRISSOM   LGT RAIN  71  70  95 S3        30.09F
MARION*        LGT RAIN  70  66  88 CALM      30.13R

$$
INZ028>050-210800-
CENTRAL INDIANA

CITY           SKY/WX    TMP DP  RH WIND       PRES   REMARKS
LAFAYETTE      TSTM      68  67  96 NW7       30.10S FOG
KOKOMO*        TSTM      71  68  90 E5        30.11S
MUNCIE*        CLOUDY    77  67  71 S5        30.12S
INDIANAPOLIS   PTCLDY    73  69  87 S3        30.09S

$$
MIZ043>046-050>051-056>058-064>065-071>073-077>080-210800-
SOUTHWEST LOWER MICHIGAN

CITY           SKY/WX    TMP DP  RH WIND       PRES   REMARKS
BATTLE CREEK   CLOUDY    71  66  84 S6        30.10F
BENTON HARBOR  CLOUDY    75  65  70 S5        30.07S
COLDWATER*     CLOUDY    69  68  94 CALM      30.11S
HILLSDALE*     CLOUDY    68  64  88 CALM      30.12S
HOLLAND        CLOUDY    71  66  84 CALM      30.07S
GRAND RAPIDS   CLOUDY    68  66  93 S7        30.07F
KALAMAZOO      CLOUDY    73  64  73 S3        30.09S
STURGIS*       MOCLDY    71  66  84 SE3       30.10S
THREE RIVERS*  FAIR      73  66  78 CALM      30.10S

$$
OHZ001>008-015>018-024>025-210800-
NORTHWEST OHIO

CITY           SKY/WX    TMP DP  RH WIND       PRES   REMARKS
WAUSEON*       FAIR      68  66  94 CALM      30.10S
DEFIANCE       PTCLDY    69  66  90 CALM      30.11R
FINDLAY        CLEAR     69  65  86 S3        30.10S
TOLEDO EXPRESS CLOUDY    69  69 100 CALM      30.09F
TOLEDO METCALF PTCLDY    70  69  97 S3        30.10S
LIMA           PTCLDY    68  65  90 CALM      30.12S

$$
AND FOR LAKE MICHIGAN COASTAL AND OPEN LAKE BUOY OBSERVATIONS

STATION/POSITION TEMP    WIND        PRES    VSBY  WAVE
                 AIR SEA DIR/SP/G                  HT/PER
                 (F)     (DEG/KT/KT) (MB)    (MI)  (FT/S)
CALUMET HARBOR           210/  2/  6 1017.4R
MICHIGAN CITY     77     160/ 10/ 12   N/A
BURNS HARBOR      76     190/ 10/ 14 1018.3S
SAINT JOSEPH      77     180/  2/  6 1019.3
SOUTH LAKE BUOY   74 72  130/  6/  6 1017.3F         1
4 MI NW BRIDGMAN  76 74  180/ 10/ 12 1017.7          1
MICHIGAN CITY     76 75  190/ 10/ 12   N/A           1/ 2

$$
&&



USA.gov is the U.S. government's official web portal to all federal, state and local government web resources and services.